Weather History for KALW - May, 2013

Change the Weather History Date:

Wednesday, May 1, 2013

  Actual Average Record
Temperature  
Mean Temperature 50 °F -  
Max Temperature 64 °F 67 °F 88 °F (1998)
Min Temperature 37 °F 44 °F 26 °F (1954)
Degree Days  
Heating Degree Days 14    
Moisture  
Dew Point 27 °F    
Average Humidity 43    
Maximum Humidity 63    
Minimum Humidity 21    
Precipitation  
Precipitation 0.00 in - - ()
Sea Level Pressure  
Sea Level Pressure 30.53 in    
Wind  
Wind Speed 6 mph (SE)    
Max Wind Speed 13 mph    
Max Gust Speed -    
Visibility 10 miles    
Events      
Averages and records for this station are not official NWS values.
T = Trace of Precipitation, MM = Missing Value Source: NWS Daily Summary

Daily Weather History Graph

Daily Weather History Graph

Search for Another Location

Airport or City:

Trip Planner

Search our weather history database for the weather conditions in past years. The results will help you decide how hot, cold, wet, or windy it might be!

Date:

Astronomy

May. 01, 2013 Rise Set
Actual Time 5:39 AM PDT 8:01 PM PDT
Civil Twilight 5:06 AM PDT 8:35 PM PDT
Nautical Twilight 4:24 AM PDT 9:16 PM PDT
Astronomical Twilight 3:37 AM PDT 10:04 PM PDT
Moon 1:15 AM PDT (5/1) 11:23 AM PDT (5/1)
Length of Visible Light 15h 29m
Length of Day
14h 22m
Waning Gibbous, 58% of the Moon is Illuminated
May 1
Waning Gibbous
May 2
Last Quarter
May 9
New
May 17
First Quarter
May 24
Full

Hourly Weather History & Observations

Time (PDT) Temp. Windchill Dew Point Humidity Pressure Visibility Wind Dir Wind Speed Gust Speed Precip Events Conditions
12:53 AM 42.1 °F 36.6 °F 26.1 °F 53% 30.41 in 10.0 mi South 9.2 mph - N/A   Clear
1:53 AM 42.1 °F 38.4 °F 25.0 °F 51% 30.42 in 10.0 mi SSE 5.8 mph - N/A   Clear
2:53 AM 39.9 °F 35.1 °F 26.1 °F 58% 30.44 in 10.0 mi South 6.9 mph - N/A   Clear
3:53 AM 41.0 °F 37.1 °F 25.0 °F 53% 30.45 in 10.0 mi South 5.8 mph - N/A   Clear
4:53 AM 39.0 °F 35.7 °F 25.0 °F 57% 30.49 in 10.0 mi South 4.6 mph - N/A   Clear
5:53 AM 37.9 °F 33.5 °F 26.1 °F 62% 30.51 in 10.0 mi South 5.8 mph - N/A   Clear
6:53 AM 39.9 °F 37.8 °F 28.0 °F 63% 30.54 in 10.0 mi ESE 3.5 mph - N/A   Clear
7:53 AM 45.0 °F 40.6 °F 26.1 °F 48% 30.56 in 10.0 mi SSW 8.1 mph - N/A   Clear
8:53 AM 48.0 °F - 26.1 °F 42% 30.58 in 10.0 mi SW 6.9 mph - N/A   Clear
9:53 AM 51.1 °F - 26.1 °F 38% 30.59 in 10.0 mi SW 4.6 mph - N/A   Clear
10:53 AM 53.1 °F - 27.0 °F 37% 30.58 in 10.0 mi WSW 3.5 mph - N/A   Clear
11:53 AM 57.0 °F - 26.1 °F 30% 30.57 in 10.0 mi WNW 4.6 mph - N/A   Clear
12:53 PM 59.0 °F - 23.0 °F 25% 30.56 in 10.0 mi North 6.9 mph - N/A   Clear
1:53 PM 61.0 °F - 23.0 °F 23% 30.56 in 10.0 mi Variable 4.6 mph - N/A   Clear
2:53 PM 62.1 °F - 24.1 °F 23% 30.56 in 10.0 mi Calm Calm - N/A   Clear
3:53 PM 63.0 °F - 23.0 °F 22% 30.54 in 10.0 mi NE 4.6 mph - N/A   Clear
4:53 PM 64.0 °F - 23.0 °F 21% 30.55 in 10.0 mi NNE 5.8 mph - N/A   Clear
5:53 PM 64.0 °F - 23.0 °F 21% 30.54 in 10.0 mi NNE 9.2 mph - N/A   Clear
6:53 PM 62.1 °F - 28.0 °F 28% 30.54 in 10.0 mi NNE 5.8 mph - N/A   Clear
7:53 PM 55.0 °F - 33.1 °F 43% 30.55 in 10.0 mi ENE 8.1 mph - N/A   Clear
8:53 PM 50.0 °F - 32.0 °F 50% 30.56 in 10.0 mi East 12.7 mph - N/A   Clear
9:53 PM 46.9 °F - 33.1 °F 59% 30.58 in 10.0 mi East 9.2 mph - N/A   Clear
10:53 PM 48.0 °F - 32.0 °F 54% 30.57 in 10.0 mi ESE 4.6 mph - N/A   Clear
11:53 PM 45.0 °F 42.6 °F 32.0 °F 60% 30.57 in 10.0 mi East 4.6 mph - N/A   Clear